Weather in Pokrovske

Ukraine / Poltava Region     49°38′37″N   34°08′17″E
temp.,
°C
wind,
m/s
gust,
m/s
humid.,
%
clouds,
%
prec.,
mm/h
press.,
hPa
HPBL,
m
13 may, thu
thu1300:00+6e499561 0.1 1012221
03:00+5se339712 0.1 101263
06:00+5s239937 0.0 101289
09:00+11ssw457560 0.0 1012684
12:00+15s445844 0.0 10121370
15:00+17s45535 0.0 10121525
18:00+17s3559100 0.0 10121401
21:00+13se346593 0.0 101349
14 may, fri
fri1400:00+11ese466818 0.0 101280
03:00+11e3670100 0.0 1012116
06:00+11ese4987100 0.0 1011180
09:00+17ese58767 0.1 1009458
12:00+22sse686576 0.0 10081372
15:00+23s795498 0.0 10071719
18:00+21s6106397 0.0 1007757
21:00+15s4118268 0.0 1008223
15 may, sat
sat1500:00+12ssw379043 0.0 1009124
03:00+11sw339586 0.0 101053
06:00+11ssw359710 0.0 1011139
09:00+17ssw46734 0.0 1012701
12:00+20sw46581 0.1 10131383
15:00+21sw3562100 0.1 1012708
18:00+18sse2271100 0.4 101328
21:00+15nw117912 0.6 101311
16 may, sun
sun1600:00+14nne018133 0.7 101310
03:00+13e22840 0.8 101314
06:00+13ne11839 0.0 101410
09:00+19e22692 0.0 1014376
12:00+23e2352100 0.0 10131471
15:00+24e234469 0.0 10122186
18:00+23ene46597 0.0 1011308
21:00+17ne477319 0.0 101188
17 may, mon
mon1700:00+16ne488096 0.0 1010124
03:00+15ne498999 0.1 1008155
06:00+15ne3790100 0.1 1007143
09:00+20e5670100 0.1 1006397
12:00+24se5755100 0.0 1005989
15:00+25sse6749100 0.0 10051412
18:00+24se46625 0.0 1004506
21:00+18w2389100 2.6 100576